Simultaneous Nadir Overpasses (SNOs) Predictions

Prediction of SNOs between GOES-16 and METOP-B Satellite Orbit:

Table of predicted SNOs for the next 14.0 days since TLE Epoch: 8/15/2025
Index Date Time (GOES-16) GOES-16 Lat,Lon METOP-B Lat,Lon Distance(km) Time Diff (sec)
1 08/17/2025 04:03:06 -0.00,-104.70 -0.01,-104.80 10.25 80
2 08/19/2025 15:58:40 0.00,-104.74 -0.06,-104.41 37.51 80
3 08/21/2025 04:20:23 -0.01,-104.69 -0.98,-109.03 494.45 80
4 08/22/2025 03:57:04 -0.00,-104.69 0.11,-104.05 72.61 80
5 08/23/2025 16:18:37 0.01,-104.73 0.90,-108.64 445.69 80
6 08/24/2025 15:55:20 0.00,-104.74 -0.25,-103.67 121.70 80
7 08/26/2025 04:17:02 -0.01,-104.70 -0.78,-108.30 409.32 80
8 08/27/2025 03:53:44 -0.00,-104.70 0.31,-103.32 158.12 80
9 08/28/2025 16:15:17 0.02,-104.75 0.69,-107.91 359.77 80
10 08/29/2025 15:51:59 0.01,-104.75 -0.41,-102.93 207.65 80
